TimeCDT,TemperatureF,Dew PointF,Humidity,Sea Level PressureIn,VisibilityMPH,Wind Direction,Wind SpeedMPH,Gust SpeedMPH,PrecipitationIn,Events,Conditions,WindDirDegrees,DateUTC
1:53 AM,37.9,27.0,65,30.37,10.0,North,10.4,-,N/A,,Overcast,360,2012-10-26 06:53:00
2:53 AM,37.9,27.0,65,30.39,10.0,North,13.8,20.7,N/A,,Overcast,350,2012-10-26 07:53:00
3:53 AM,37.9,26.1,62,30.41,10.0,North,13.8,-,N/A,,Overcast,10,2012-10-26 08:53:00
4:32 AM,35.6,26.6,70,30.40,10.0,North,10.4,-,N/A,,Scattered Clouds,360,2012-10-26 09:32:00
4:53 AM,35.1,26.1,70,30.41,10.0,NNW,6.9,-,N/A,,Clear,340,2012-10-26 09:53:00
5:53 AM,33.1,26.1,75,30.42,10.0,NNW,5.8,-,N/A,,Mostly Cloudy,340,2012-10-26 10:53:00
6:53 AM,33.1,25.0,72,30.44,10.0,NNW,5.8,-,N/A,,Scattered Clouds,330,2012-10-26 11:53:00
7:53 AM,32.0,25.0,75,30.46,10.0,NNW,8.1,-,N/A,,Clear,340,2012-10-26 12:53:00
8:53 AM,34.0,27.0,75,30.50,10.0,North,6.9,-,N/A,,Clear,350,2012-10-26 13:53:00
9:53 AM,37.4,28.4,70,30.50,10.0,NNW,8.1,-,N/A,,Clear,330,2012-10-26 14:53:00
10:53 AM,44.1,27.0,51,30.52,10.0,North,12.7,21.9,N/A,,Scattered Clouds,360,2012-10-26 15:53:00
11:53 AM,43.0,26.1,51,30.53,10.0,NNW,12.7,23.0,N/A,,Mostly Cloudy,340,2012-10-26 16:53:00
12:53 PM,45.0,26.1,48,30.51,10.0,North,13.8,18.4,N/A,,Scattered Clouds,350,2012-10-26 17:53:00
1:53 PM,45.0,26.1,48,30.49,10.0,NNW,12.7,-,N/A,,Clear,330,2012-10-26 18:53:00
2:53 PM,45.0,26.1,48,30.46,10.0,North,8.1,-,N/A,,Clear,350,2012-10-26 19:53:00
3:53 PM,48.0,26.1,42,30.44,10.0,North,15.0,20.7,N/A,,Clear,350,2012-10-26 20:53:00
4:53 PM,46.9,26.1,44,30.43,10.0,NNW,13.8,19.6,N/A,,Clear,330,2012-10-26 21:53:00
5:53 PM,44.1,26.1,49,30.43,10.0,NNW,11.5,-,N/A,,Clear,340,2012-10-26 22:53:00
6:53 PM,41.0,25.0,53,30.44,10.0,NNW,5.8,-,N/A,,Clear,340,2012-10-26 23:53:00
7:53 PM,37.9,25.0,60,30.46,10.0,Calm,Calm,-,N/A,,Clear,0,2012-10-27 00:53:00
8:53 PM,36.0,26.1,67,30.46,10.0,Calm,Calm,-,N/A,,Clear,0,2012-10-27 01:53:00
9:53 PM,33.1,27.0,78,30.46,10.0,NW,3.5,-,N/A,,Clear,320,2012-10-27 02:53:00
10:53 PM,33.1,25.0,72,30.45,10.0,North,4.6,-,N/A,,Clear,360,2012-10-27 03:53:00
11:53 PM,32.0,25.0,75,30.45,10.0,North,5.8,-,N/A,,Clear,350,2012-10-27 04:53:00